Lid_Strength_Index
2 4 4 4 9 9 11 10 7 7 7 5 5 6 6 6 8 11 1 -0 -0 -0 -1 -1 -2 -2 -2 -2 -2 -2 -2 -2 -2 -2 -2 -2 -2 -2 -2 -2 -2 -2 -2 -2 -2 -2 -2 -2 -2
4 4 4 6 10 11 11 9 9 6 6 4 5 5 6 8 4 4 2 -0 -1 -1 -1 -1 -1 -2 -2 -2 -2 -2 -2 -2 -2 -2 -2 -2 -2 -2 -2 -2 -3 -2 -2 -2 -2 -2 -2 -2 -2
5 5 6 8 10 11 11 9 7 6 5 5 6 4 5 7 4 3 0 -0 -0 -0 -1 -1 -1 -2 -2 -2 -2 -2 -2 -2 -2 -2 -2 -2 -2 -2 -2 -2 -2 -2 -2 -2 -2 -2 -2 -2 -2
5 5 6 10 11 10 10 9 6 6 5 4 5 7 4 2 3 1 -0 -0 -0 -0 -1 -1 -2 -2 -1 -2 -2 -2 -2 -2 -2 -2 -2 -2 -2 -2 -2 -2 -2 -2 -2 -2 -2 -2 -2 -2 -2
5 6 9 11 10 10 10 9 5 6 6 5 5 7 6 3 1 0 0 -0 0 -0 -1 -1 -1 -2 -1 -2 -2 -2 -2 -2 -2 -2 -2 -2 -2 -2 -2 -2 -2 -2 -2 -2 -2 -2 -2 -2 -2
7 7 11 12 10 9 8 6 5 6 5 5 5 6 6 2 2 1 0 -0 -0 -0 -1 -1 -0 -1 -1 -2 -2 -2 -2 -2 -2 -2 -2 -2 -2 -2 -2 -2 -2 -2 -2 -2 -2 -2 -2 -2 -2
8 9 11 10 10 10 9 5 6 6 6 6 4 6 5 3 1 1 0 -0 -0 -0 -0 -1 -1 -1 -0 -1 -1 -1 -2 -2 -2 -2 -2 -2 -2 -2 -2 -2 -2 -2 -2 -2 -2 -2 -2 -2 -2
7 7 10 10 11 11 8 6 5 5 6 3 3 6 7 4 1 1 0 0 -0 -0 -0 -1 -1 -1 -1 -1 0 -0 -1 -1 -1 -1 -1 -1 -1 -2 -2 -1 -2 -2 -2 -2 -2 -2 -2 -2 -1
7 9 11 11 10 10 8 8 6 4 5 4 4 4 3 2 1 2 2 1 1 0 -0 -0 -1 -1 -1 -1 -0 0 -0 -0 0 -0 1 -0 -1 -2 -1 -1 -2 -2 -2 -2 -2 -2 -1 -1 -1
8 9 10 8 9 10 9 8 7 6 5 5 5 3 2 2 2 3 3 3 2 1 0 -0 -1 -0 -1 -1 -1 -1 -1 -1 -1 -1 -1 -1 -1 -1 -1 -1 -1 -1 -2 -2 -2 -1 -1 -1 -1
8 9 7 10 9 9 10 10 8 7 6 5 5 4 4 3 3 3 2 2 2 1 1 0 -1 -1 -1 -1 -1 -1 -0 -0 -1 -1 -1 -1 -1 -1 -1 -1 -1 -1 -0 -1 -1 -1 -1 -1 -1
10 7 7 9 10 10 10 9 10 8 7 5 3 3 4 4 4 3 3 2 2 1 1 0 -0 -0 -1 -1 -1 -0 0 -0 -1 -1 -1 -1 -1 -1 -1 -1 -1 -1 -1 -1 -1 -1 -1 -1 -1
10 7 8 9 10 9 9 10 10 9 7 5 3 3 4 4 4 2 2 1 1 1 1 0 -0 -0 -1 -0 0 0 0 -1 -1 -1 -1 -1 -1 -1 -1 -1 -1 -1 -1 -1 -1 -1 -1 -1 -1
7 7 9 8 9 9 10 10 10 9 7 6 4 4 4 4 3 3 2 2 2 1 1 0 -0 -0 -1 0 0 0 -0 -1 -1 -1 -1 -1 -1 -1 -1 -1 -1 -1 -1 -1 -1 -1 -1 -1 -1
8 10 9 9 8 9 9 10 11 8 8 7 5 4 4 4 3 3 2 2 1 1 0 0 0 -0 -1 -1 -1 -1 -1 -1 -1 -1 -1 -1 -1 -1 -1 -1 -1 -1 -1 -1 -1 -1 -1 -1 -1
10 9 11 8 9 9 9 11 8 8 8 8 5 4 4 4 3 2 2 1 1 1 1 0 -0 -0 -0 -1 -1 -1 -1 -1 -1 -1 -1 -1 -1 -1 -1 -1 -1 -1 -1 -1 -1 -1 -0 -0 0
10 13 12 10 7 8 10 10 7 8 8 8 7 4 4 4 3 2 2 1 1 1 0 0 -0 0 -0 -1 -1 -1 -1 -1 -1 -1 -1 -1 -1 -1 -1 -1 -1 -1 -1 -1 -1 -0 -0 0 0
15 13 11 11 9 10 10 10 7 9 8 8 7 5 4 4 4 3 2 1 1 1 0 0 0 -0 -0 -0 -1 -1 -1 -1 -1 -1 -1 -1 -1 -1 -1 -1 -1 -1 -1 -0 -0 0 -0 0 0
10 12 12 10 8 10 10 9 7 6 8 9 8 7 4 4 3 2 2 1 1 1 1 1 1 0 0 0 1 1 1 0 -0 -1 -1 -1 -1 -1 -1 -1 -1 -1 -0 -0 -0 0 1 0 -0
11 12 12 10 11 11 9 10 8 8 7 8 8 8 7 4 3 3 2 2 2 1 1 1 1 0 0 0 0 0 0 0 -0 -1 -1 -1 -1 -1 -1 -1 -1 -1 -0 0 0 0 1 1 0
11 12 12 12 10 9 9 11 9 7 7 7 8 7 7 6 4 3 3 2 2 2 1 1 1 0 0 -0 0 0 0 0 1 0 -0 -1 -1 -1 -1 -1 -1 -0 -0 0 0 0 1 2 1
14 10 10 11 12 15 9 16 10 8 8 7 7 8 8 7 5 3 3 3 2 2 1 1 1 1 0 -0 1 1 2 2 1 1 0 -0 -1 -1 -1 -1 -1 -0 -0 0 1 1 0 1 2
12 9 10 11 12 13 12 14 11 8 9 8 6 7 7 7 5 3 3 3 2 2 1 1 1 1 0 0 0 1 2 1 1 0 1 0 -0 -1 -0 0 0 1 2 2 3 2 0 0 1
8 11 11 12 13 19 13 14 13 10 9 7 7 6 6 7 7 4 3 2 2 2 1 1 1 1 1 1 1 1 1 1 1 1 1 1 1 2 2 3 2 3 3 4 3 2 2 3 4
10 12 18 20 20 20 13 14 12 9 7 7 8 6 6 6 6 6 4 3 3 2 2 2 1 2 1 1 1 1 1 1 1 1 1 2 2 3 3 4 5 5 5 4 4 4 5 6 7
12 13 17 21 20 16 15 16 12 8 8 9 7 7 7 6 5 6 6 4 3 2 2 2 2 2 1 1 1 1 1 1 1 1 1 1 3 3 3 5 6 6 6 5 5 6 7 7 8
12 15 10 14 17 16 13 12 10 9 9 8 8 8 8 8 7 6 6 6 6 5 3 2 2 2 1 1 1 1 1 1 1 1 1 1 2 5 7 7 8 7 7 8 7 8 9 9 9
10 9 15 14 20 20 14 13 12 11 9 8 8 8 7 7 8 8 7 7 6 6 6 4 3 2 1 1 1 1 1 1 1 1 1 2 4 8 9 10 9 9 9 9 8 9 9 10 10
12 13 11 12 13 17 18 14 10 9 9 9 9 9 8 8 8 8 7 7 7 7 6 6 5 5 4 1 1 1 1 1 1 2 3 4 7 10 11 11 10 10 9 10 9 10 10 10 11
9 11 11 15 17 14 15 14 10 9 9 9 9 9 8 7 7 7 7 7 7 7 7 7 6 5 5 4 2 1 1 3 3 5 6 8 9 10 12 12 12 11 11 11 10 11 11 11 11